Lexington Weather

Lexington, Massachusetts, USA

44°F
5/12/2021 5:11am 
  • Lexington Conditions: Clear
  • Temperature: 44.4°F / 6.9°C 
  • Dew Point: 33.4°FIncreased 0.9°Fsince last hour.
  • Relative Humidity: 65%Increased 2.0% since last hour.
  • Wind: Wind from W W 1 mph, 10-min avg: 1 mph, gust: 3 mph
  • Barometer: 29.94 inRising 0.02  inHg/hr Rising Slowly
  • Visibility: 10 miles
  • Rain Today: 0.00 in
  •   

Regional Weather Roundup
for Boston / Norton, MA

        
000
ASUS41 KBOX 081705
RWRBOX

REGIONAL WEATHER ROUNDUP
NATIONAL WEATHER SERVICE BOSTON/NORTON MA
100 PM EDT SAT MAY 08 2021

NOTE:  "FAIR" INDICATES FEW OR NO CLOUDS BELOW 12,000 FEET WITH NO 
SIGNIFICANT WEATHER AND/OR OBSTRUCTIONS TO VISIBILITY.

MAZALL-081800-
EASTERN MASSACHUSETTS
  
CITY           SKY/WX    TMP DP  RH WIND       PRES   REMARKS
BOSTON         CLOUDY    54  37  52 E8        29.85F                  
BEVERLY        CLOUDY    53  37  54 NE5       29.84F                  
LAWRENCE       CLOUDY    55  35  47 VRB3      29.85F                  
BEDFORD        CLOUDY    55  35  47 MISG      29.83F                  
BLUE HILL        N/A     52  34  50 VRB6      29.83F                  
NORWOOD        CLOUDY    55  35  47 E8        29.85F                  
MARSHFIELD     CLOUDY    52  41  66 N9        29.85F                  
PLYMOUTH       CLOUDY    52  40  63 NE9       29.84F                  
TAUNTON        CLOUDY    53  38  56 N6        29.84F                  
NEW BEDFORD    CLOUDY    52  39  61 N8        29.83F                  
$$

MAZALL-081800-
CAPE COD AND THE ISLANDS
  
CITY           SKY/WX    TMP DP  RH WIND       PRES   REMARKS
FALMOUTH       CLOUDY    50  41  71 N12       29.84S                  
HYANNIS        CLOUDY    51  43  74 N14       29.82S                  
CHATHAM        CLOUDY    52  39  61 MISG      29.83F                  
PROVINCETOWN   CLOUDY    49  42  77 N10       29.85S                  
NANTUCKET      CLOUDY    51  42  71 N14       29.83R                  
MARTHAS VNYRD  PTSUNNY   57  40  52 NE13G23   29.82F                  
$$
 
MAZALL-081800-
CENTRAL AND WESTERN MASSACHUSETTS
  
CITY           SKY/WX    TMP DP  RH WIND       PRES   REMARKS
WORCESTER      PTSUNNY   53  31  42 NE8       29.83F                  
FITCHBURG      CLOUDY    55  31  39 SE6       29.84F                  
ORANGE         CLOUDY    56  29  35 NE7       29.84F                  
SPRINGFIELD    CLOUDY    56  30  36 SE5       29.83F                  
WESTFIELD      CLOUDY    57  30  35 E7        29.83F                  
NORTH ADAMS    CLOUDY    56  32  40 VRB3      29.83F                  
PITTSFIELD     PTSUNNY   52  35  52 SW9       29.82F                  
$$
 
RIZALL-081800-
RHODE ISLAND
  
CITY           SKY/WX    TMP DP  RH WIND       PRES   REMARKS
PROVIDENCE     PTSUNNY   58  36  43 NE9       29.84F                  
NEWPORT        PTSUNNY   55  38  52 N8G17     29.83F                  
BLOCK ISLAND   CLOUDY    53  34  48 W7        29.85F                  
SMITHFIELD       N/A     54  37  52 NE8       29.84F                  
WESTERLY       CLOUDY    52  32  46 S6        29.84F                  
$$
 
CTZALL-081800-
CONNECTICUT
  
CITY           SKY/WX    TMP DP  RH WIND       PRES   REMARKS
BRADLEY INTL   CLOUDY    58  31  35 VRB3      29.84F                  
HARTFORD       CLOUDY    57  31  37 CALM      29.84F                  
BRIDGEPORT     CLOUDY    54  30  40 SE3       29.86F                  
DANBURY        CLOUDY    53  36  52 E3        29.86F                  
GROTON         CLOUDY    52  38  58 SW12      29.84S                  
NEW HAVEN      CLOUDY    55  40  56 CALM      29.86F                  
CHESTER        PTSUNNY   55  32  41 MISG      29.84F                  
MERIDEN        CLOUDY    55  33  43 VRB3      29.85F                  
WILLIMANTIC    CLOUDY    57  30  35 NE8       29.83F                  
OXFORD         PTSUNNY   50  38  63 N8        29.86F                  
$$

MEZ002-015-021-024-NHZ003-005-008-011-012-014-VTZ005-008-081800-
NORTHERN NEW ENGLAND
  
CITY           SKY/WX    TMP DP  RH WIND       PRES   REMARKS
PORTLAND ME    CLOUDY    52  37  56 NE8       29.84F                  
BANGOR ME      CLOUDY    48  35  60 N14       29.84F                  
CONCORD NH     CLOUDY    54  29  38 CALM      29.84F                  
MANCHESTER NH  CLOUDY    56  28  34 VRB6      29.82F                  
NASHUA NH      CLOUDY    55  32  41 E7        29.85F                  
PORTSMOUTH NH  CLOUDY    53  33  46 S5        29.84F                  
JAFFREY NH     CLOUDY    53  29  39 VRB3      29.84F                  
KEENE NH       CLOUDY    56  29  35 S9        29.83F                  
BURLINGTON VT  NOT AVBL                                               
MT. WASHINGTON CLOUDY    30  25  80 N10         N/A  WCI  21          
$$

NYZ052-076-081800-
EASTERN NEW YORK
  
CITY           SKY/WX    TMP DP  RH WIND       PRES   REMARKS
ALBANY         CLOUDY    52  34  50 S7        29.85F                  
NEW YORK CITY  CLOUDY    54  36  50 SE9G18    29.85F                  
$$
 
ANZALL-081800-
MARINE OBSERVATIONS
  
STATION/POSITION TIME  TEMP    WIND        PRES    VSBY  WAVE
                       AIR SEA DIR/SP/G                  HT/PER
                 (UTC) (F)     (DEG/KT/KT) (MB)    (MI)  (FT/S)
BOSTON BUOY      1640   47 47  360/ 10/ 14 1010.6F
BUZZARDS BAY     1600          360/ 12/ 13 1011.4F
NANTUCKET SOUND  1640      52                N/A
MASS BAY-STELLWA 1604   47      10/ 12/ 14 1009.9F  1 7/8  3/ 5
ISLE OF SHOALS   1600   48      40/  9/ 10 1010.9F
S OF BLOCK IS    1626      49                N/A           3/ 7
$$

......................KEY.........................
  SKY/WX - SKY CONDITION/PRESENT WEATHER
  TMP    - TEMPERATURE IN FAHRENHEIT
  DWPT   - DEWPOINT IN FAHRENHEIT
  RH     - RELATIVE HUMIDITY IN PERCENT
  WIND   - DIRECTION AND SPEED IN MPH
  PRES   - MEAN SEA LEVEL PRESSURE IN INCHES OF HG
  WCI    - WIND CHILL INDEX
  VSB    - VISIBILITY IN MILES
  HX     - HEAT INDEX
  TC     - TEMPERATURE IN CELSIUS
  VRB    - VARIABLE WIND DIRECTION
  N/A    - NOT AVAILABLE
  
      

Other recent Regional Weather Roundups

Wed May 12, 5:04am

Wed May 12, 4:04am

Wed May 12, 3:04am

Wed May 12, 2:04am

Wed May 12, 1:04am

Wed May 12, 12:05am

Tue May 11, 11:05pm

Tue May 11, 10:04pm

Tue May 11, 9:05pm

Tue May 11, 8:05pm

Tue May 11, 7:04pm

Tue May 11, 6:04pm

Tue May 11, 5:04pm

Tue May 11, 4:05pm

Tue May 11, 3:04pm

Tue May 11, 2:05pm

Tue May 11, 1:04pm

Tue May 11, 12:05pm

Tue May 11, 11:05am

Tue May 11, 10:04am

Tue May 11, 9:04am

Tue May 11, 8:04am

Tue May 11, 7:05am

Tue May 11, 6:04am

Tue May 11, 5:04am

Tue May 11, 4:04am

Tue May 11, 3:04am

Tue May 11, 2:04am

Tue May 11, 1:04am

Tue May 11, 12:04am

Mon May 10, 11:04pm

Mon May 10, 10:04pm

Mon May 10, 9:05pm

Mon May 10, 8:04pm

Mon May 10, 7:05pm

Mon May 10, 6:04pm

Mon May 10, 5:04pm

Mon May 10, 4:04pm

Mon May 10, 3:04pm

Mon May 10, 2:04pm

Mon May 10, 1:04pm

Mon May 10, 12:04pm

Mon May 10, 11:05am

Mon May 10, 10:04am

Mon May 10, 9:04am

Mon May 10, 8:04am

Mon May 10, 7:04am

Mon May 10, 6:04am

Mon May 10, 5:05am

Mon May 10, 4:04am

Mon May 10, 3:04am

Mon May 10, 2:04am

Mon May 10, 1:04am

Mon May 10, 12:04am

Sun May 9, 11:04pm

Sun May 9, 10:04pm

Sun May 9, 9:04pm

Sun May 9, 8:04pm

Sun May 9, 7:05pm

Sun May 9, 6:04pm

Sun May 9, 5:04pm

Sun May 9, 4:04pm

Sun May 9, 3:04pm

Sun May 9, 2:04pm

Sun May 9, 1:05pm

Sun May 9, 12:04pm

Sun May 9, 11:05am

Sun May 9, 10:04am

Sun May 9, 9:04am

Sun May 9, 8:04am

Sun May 9, 7:04am

Sun May 9, 6:04am

Sun May 9, 5:04am

Sun May 9, 4:04am

Sun May 9, 3:04am

Sun May 9, 2:04am

Sun May 9, 1:05am

Sun May 9, 12:04am

Sat May 8, 11:05pm

Sat May 8, 10:04pm

Sat May 8, 9:05pm

Sat May 8, 8:04pm

Sat May 8, 7:04pm

Sat May 8, 6:04pm

Sat May 8, 5:05pm

Sat May 8, 4:04pm

Sat May 8, 3:05pm

Sat May 8, 2:05pm

Sat May 8, 12:04pm

Sat May 8, 11:05am

Sat May 8, 10:04am

Sat May 8, 9:04am

Sat May 8, 8:04am

Sat May 8, 7:04am

Sat May 8, 6:04am

Sat May 8, 5:04am

Sat May 8, 4:04am

Sat May 8, 3:04am

Sat May 8, 2:04am

Sat May 8, 1:05am

Sat May 8, 12:04am

Fri May 7, 11:04pm

Fri May 7, 10:05pm

Fri May 7, 9:04pm

Fri May 7, 8:04pm

Fri May 7, 7:05pm

Fri May 7, 6:04pm

Fri May 7, 5:05pm

Fri May 7, 4:04pm

Fri May 7, 3:04pm

Fri May 7, 2:05pm

Fri May 7, 1:04pm

Fri May 7, 12:04pm

Fri May 7, 11:05am

Fri May 7, 10:04am

Fri May 7, 9:04am

Fri May 7, 8:05am

Fri May 7, 7:04am

Fri May 7, 6:04am

Fri May 7, 5:04am

Fri May 7, 4:04am

Fri May 7, 3:04am

Fri May 7, 2:05am

Fri May 7, 1:04am

Fri May 7, 12:05am

Thu May 6, 11:04pm

Thu May 6, 10:04pm

Thu May 6, 9:05pm

Thu May 6, 8:04pm

Thu May 6, 7:04pm

Thu May 6, 6:04pm

Thu May 6, 5:05pm

Thu May 6, 4:04pm

Thu May 6, 3:04pm

Thu May 6, 2:05pm

Thu May 6, 1:04pm

Thu May 6, 12:04pm

Thu May 6, 11:04am

Thu May 6, 10:04am

Thu May 6, 9:04am

Thu May 6, 8:04am

Thu May 6, 7:04am

Thu May 6, 6:04am

Thu May 6, 5:04am

Thu May 6, 4:04am

Thu May 6, 3:04am

Thu May 6, 2:05am

Thu May 6, 1:04am

Thu May 6, 12:05am

Wed May 5, 11:04pm

Wed May 5, 10:04pm

Wed May 5, 9:05pm

Wed May 5, 8:04pm

Wed May 5, 7:05pm

Wed May 5, 6:04pm

Wed May 5, 5:04pm

Wed May 5, 4:04pm

Wed May 5, 3:04pm

Wed May 5, 2:05pm

Wed May 5, 1:05pm

Wed May 5, 12:04pm

Wed May 5, 11:05am

Wed May 5, 10:04am

Wed May 5, 9:04am

Wed May 5, 8:04am

Wed May 5, 7:04am

Wed May 5, 6:05am

Meta data:

ID: 98578a24-cabb-445c-b83e-fd918b12c8d9
Link: https://api.weather.gov/products/98578a24-cabb-445c-b83e-fd918b12c8d9